{"data":{"norad_id":54200,"intl_designator":"2022-141AV","name":"STARLINK-5250","alt_names":[],"object_type":"PAYLOAD","status":"ACTIVE","operator":null,"country":"US","launch_date":"2022-10-28","launch_site_code":"AFWTR","launch_vehicle":null,"mission":null,"orbit_class":"UNKNOWN","rcs_meters":null,"size_class":null,"mass_kg":null,"dimensions":null,"purposes":["comms"],"wikipedia_slug":null,"has_3d_model":false,"image_url":null,"decayed_at":null,"tle_current":{"epoch":"2026-09-20T04:14:01.529376Z","epoch_age_seconds":117280,"freshness":"FRESH","line1":"1 54200U 22141AV  26263.17640659  .00000752  00000+0  32466-4 0  9996","line2":"2 54200  53.1607 189.5111 0001129  71.6846 288.4280 15.35404130215518","mean_motion":15.3540413,"eccentricity":0.0001129,"inclination_deg":53.1607,"raan_deg":189.5111,"arg_perigee_deg":71.6846,"mean_anomaly_deg":288.428,"bstar":3.2466e-5,"rev_number":21551,"period_min":93.786383132889,"perigee_km":458.94838676171,"apogee_km":460.49237495831,"semimajor_km":6837.85738086,"source":"CELESTRAK","updated_at":"2026-09-21T09:00:33.116766Z"}}}